Regional Weather Roundup
Issued by NWS

Home | Current Version | Previous Version | Graphics & Text | Print | Product List | Glossary On
Versions: 1 2 3 4 5 6 7 8 9 10 11 12 13 14 15 16 17 18 19 20 21 22 23 24 25 26 27 28 29 30 31 32 33 34 35 36 37 38 39 40 41 42 43 44 45 46 47 48 49 50
000
ASUS43 KMPX 230801
RWRMN
WEATHER ROUNDUP FOR MINNESOTA
NATIONAL WEATHER SERVICE TWIN CITIES/CHANHASSEN MN
200 AM CST THU NOV 23 2017


NOTE: "FAIR" INDICATES FEW OR NO CLOUDS BELOW 12,000 FEET WITH NO
SIGNIFICANT WEATHER AND/OR OBSTRUCTIONS TO VISIBILITY. N/A MEANS
CURRENT SKY AND/OR WEATHER CONDITIONS ARE NOT AVAILABLE.

MNZ060>063-068>070-230900-
   Twin Cities Metro

CITY           SKY/WX    TMP DP  RH WIND       PRES   REMARKS
TWIN CITIES    CLOUDY    27  18  69 CALM      29.93R
ST PAUL        CLOUDY    26  18  71 CALM      29.94S
CRYSTAL        CLOUDY    23  15  71 CALM      29.92S
BLAINE         CLOUDY    25  19  80 CALM      29.92F
LAKEVILLE      CLOUDY    21  16  79 CALM      29.92R
EDEN PRAIRIE   CLOUDY    29  17  61 CALM      29.91S
SOUTH ST PAUL  CLOUDY    26  18  72 CALM      29.93S
LAKE ELMO      FAIR      23  18  80 CALM      29.94R
$$
MNZ001>005-007-008-013>017-022>024-027-028-230900-
   Northwest Minnesota

CITY           SKY/WX    TMP DP  RH WIND       PRES   REMARKS
BEMIDJI        CLOUDY    17  15  92 CALM      29.90F
HALLOCK        MOCLDY    16  12  86 W3        29.93R
ROSEAU         CLOUDY    18  12  79 SW5       29.90R WCI  11
WARROAD        CLOUDY    14  10  85 CALM      29.89F
THIEF RVR FALL CLOUDY    16  16 100 SW6       29.92F FOG     WCI   7
CROOKSTON      CLOUDY    18  16  93 CALM      29.95R
FOSSTON        PTCLDY    10   9  92 CALM      29.92F
DETROIT LAKES  CLOUDY    21  18  86 CALM      29.91F
MOORHEAD       CLOUDY    19  14  79 CALM      29.96R
PARK RAPIDS    CLOUDY    13  10  88 CALM      29.90F
MAHNOMEN       FAIR      19  15  84 CALM      29.91F
$$
MNZ006-009>011-018-025>026-230900-
   North Central Minnesota

CITY           SKY/WX    TMP DP  RH WIND       PRES   REMARKS
BAUDETTE       CLOUDY    19  16  88 S5        29.87F WCI  12
FLAG ISLAND    CLOUDY    19  16  86 SW5       29.87F WCI  13
INTL FALLS     CLOUDY    20  16  84 SW3       29.90S
WASKISH        CLOUDY    16  16 100 CALM      29.90F
BIG FORK       CLOUDY    21  18  86 CALM      29.91S
LONGVILLE      CLOUDY     9   7  92 CALM      29.93S
GRAND RAPIDS   CLOUDY    18  17  96 CALM      29.94S
CRANE LAKE     CLOUDY    19  18  93 CALM      29.93S
ORR            CLOUDY    19  16  86 CALM      29.89R
COOK           CLOUDY    19  18  93 SW3       29.92R
WALKER         FAIR      15  13  92 CALM      29.91S
$$
MNZ012-019>021-037-230900-
   Northeast Minnesota

CITY           SKY/WX    TMP DP  RH WIND       PRES   REMARKS
DULUTH         CLOUDY    22  19  89 W6        29.90F WCI  14
ELY            MOCLDY    18  16  93 SW5       29.89S WCI  11
HIBBING        CLOUDY    19  17  92 CALM      29.92S
EVELETH        CLOUDY    20  16  84 W5        29.92S WCI  13
DULUTH HARBOR  CLOUDY    27  21  80 W5        29.96S WCI  21
TWO HARBORS    PTCLDY    27  21  80 W6        29.90S WCI  20
SILVER BAY     CLEAR     21  19  93 CALM      29.90R
GRAND MARAIS     N/A     28  21  75 W10       29.91F WCI  19
G MARAIS ARPRT CLOUDY    19  12  73 W6        29.84S WCI  11
$$
MNZ029>031-032-039>041-046>048-054>057-064-230900-
   West Central Minnesota

CITY           SKY/WX    TMP DP  RH WIND       PRES   REMARKS
FERGUS FALLS   CLOUDY    19  16  86 NE3       29.96S
WHEATON        CLOUDY    25  19  80 NW7       29.98R WCI  17
MORRIS         CLOUDY    25  18  74 NW10      29.93R WCI  15
ALEXANDRIA     CLOUDY    19  16  88 CALM      29.92S
ELBOW LAKE     FAIR      19  17  90 W3        29.95R FOG
WADENA         CLOUDY    18  14  86 CALM      29.91S
GLENWOOD       CLOUDY    19  18  93 CALM      29.92R
APPLETON       CLOUDY    28  21  74 NW7       29.94R WCI  21
BENSON         CLOUDY    18  12  79 N3        29.94R
ORTONVILLE     CLOUDY    28  21  74 N12       29.95R WCI  18
MADISON        CLOUDY    30  25  80 NW7       29.95R WCI  23
WILLMAR        FAIR      21  18  86 CALM      29.93R
$$
MNZ033>034-036-042>043-049>051-058-059-230900-
   Central Minnesota

CITY           SKY/WX    TMP DP  RH WIND       PRES   REMARKS
ST CLOUD       CLOUDY    22  16  78 CALM      29.93R
SAUK CENTRE    FAIR      18  16  90 CALM      29.92R
PAYNESVILLE    CLOUDY    19  18  93 CALM      29.93R
AITKIN         CLOUDY    10   9  92 CALM      29.92R
PINE RIVER     CLOUDY    12  10  92 CALM      29.96S
BRAINERD       CLOUDY    14  12  92 CALM      29.93R
STAPLES        CLOUDY    16  12  86 CALM      29.92R
LITTLE FALLS   CLOUDY    25  14  63 CALM      29.92F
LITCHFIELD     CLOUDY    25  21  86 CALM      29.92R
BUFFALO        CLOUDY    21  16  81 CALM      29.94R
MAPLE LAKE     CLOUDY    22  19  90 CALM      29.93S
HUTCHINSON     MOCLDY    21  18  86 CALM      29.92R
$$
MNZ037-044-045-052-053-230900-
   East Central Minnesota

CITY           SKY/WX    TMP DP  RH WIND       PRES   REMARKS
PRINCETON      CLOUDY    25  19  80 CALM      29.93R
MORA           CLOUDY    25  21  86 CALM      29.94F
CAMBRIDGE      CLOUDY    25  18  74 CALM      29.93F
RUSH CITY      CLOUDY    25  19  80 CALM      29.94F
MOOSE LAKE     CLOUDY    21  19  93 CALM      29.93R
HINCKLEY       CLOUDY    25  23  93 CALM      29.94R
CLOQUET        CLOUDY    23  19  86 CALM      29.92R
MCGREGOR       PTCLDY    19  18  93 CALM      29.93R
$$
MNZ071>073-080-081-089-090-097-098-230900-
   Southwest Minnesota

CITY           SKY/WX    TMP DP  RH WIND       PRES   REMARKS
MONTEVIDEO     CLOUDY    25  18  74 N8        29.94R WCI  16
GRANITE FALLS  CLOUDY    24  19  82 W9        29.95R WCI  14
CANBY          CLOUDY    33  26  76 NW10      29.95R WCI  25
MARSHALL       CLOUDY    27  22  81 NW10      29.94R WCI  17
REDWOOD FALLS  CLOUDY    25  16  68 W5        29.91S WCI  19
OLIVIA         CLOUDY    23  18  80 W3        29.92R
PIPESTONE      CLOUDY    25  18  74 NW7       29.93S WCI  17
WINDOM         CLOUDY    25  12  58 W7        29.92R WCI  17
WORTHINGTON    CLOUDY    29  21  72 W13       29.93R WCI  19
JACKSON        CLOUDY    30  21  69 CALM      29.92R
SLAYTON        CLOUDY    30  16  54 W7        29.93R WCI  24
$$
MNZ065>067-074>077-082>085-091>093-230900-
   South Central Minnesota

CITY           SKY/WX    TMP DP  RH WIND       PRES   REMARKS
MANKATO        CLOUDY    28  19  69 SW6       29.92S WCI  22
NEW ULM        CLOUDY    23  16  74 CALM      29.92R
ST JAMES       CLOUDY    25  18  74 SW6       29.93S WCI  18
FAIRMONT       CLOUDY    25  18  74 W6        29.92F WCI  18
GLENCOE        CLOUDY    25  19  79 CALM      29.92R
FARIBAULT      CLOUDY    27  19  74 S3        29.92R
OWATONNA       CLOUDY    27  19  74 S5        29.91S WCI  21
WASECA         CLOUDY    25  18  74 SW3       29.92S
ALBERT LEA     CLOUDY    28  18  64 SW3       29.91F
$$
MNZ078>079-086>088-094>096-230900-
   Southeast Minnesota

CITY           SKY/WX    TMP DP  RH WIND       PRES   REMARKS
ROCHESTER      CLEAR     27  18  69 S13       29.91F WCI  16
RED WING       CLOUDY    28  16  59 CALM      29.94R
STANTON        CLOUDY    28  19  71 CALM      29.91R
DODGE CENTER   CLOUDY    28  18  64 S13       29.90S WCI  18
WINONA         CLEAR     32  19  59 SE3       29.95F
PRESTON        CLEAR     28  17  61 S13       29.92F WCI  18
$$
ABBREVIATIONS USED IN REMARKS
   TC - TEMPERATURES IN CELSIUS
  WCI - WIND CHILL INDEX
   HX - HEAT INDEX
  VSB - VISIBILITY
$$




USA.gov is the U.S. government's official web portal to all federal, state and local government web resources and services.